Pineville, WV

7:50 AM EST on January 18, 2018 (GMT -0500)
Pineville

Weather History for KI16 - June, 2014

Change the Weather History Date:

Tuesday, June 3, 2014

  Actual Average (KBKW) Record (KBKW)
Temperature  
Mean Temperature 72 °F -  
Max Temperature 80 °F 72 °F 89 °F (1951)
Min Temperature 63 °F 53 °F 35 °F (1910)
Cooling Degree Days 6    
Growing Degree Days 22 (Base 50)    
Moisture  
Dew Point 67 °F    
Average Humidity 93    
Maximum Humidity 100    
Minimum Humidity 67    
Precipitation  
Precipitation 0.00 in - - ()
Sea Level Pressure  
Sea Level Pressure 30.14 in    
Wind  
Wind Speed - (North)    
Max Wind Speed -    
Max Gust Speed -    
Visibility 7 miles    
Events Rain    
Averages and records for this station are not official NWS values.
T = Trace of Precipitation, MM = Missing Value Source: NWS Daily Summary

Daily Weather History Graph

Daily Weather History Graph

Search for Another Location

Airport or City:

Trip Planner

Search our weather history database for the weather conditions in past years. The results will help you decide how hot, cold, wet, or windy it might be!

Date:

Astronomy

Jun. 03, 2014 Rise Set
Actual Time 6:05 AM EDT 8:43 PM EDT
Civil Twilight 5:35 AM EDT 9:14 PM EDT
Nautical Twilight 4:56 AM EDT 9:52 PM EDT
Astronomical Twilight 4:14 AM EDT 10:35 PM EDT
Moon 11:23 AM EDT (6/3) 12:14 AM EDT (6/3)
Length of Visible Light 15h 38m
Length of Day
14h 37m
Waxing Crescent, 30% of the Moon is Illuminated
Jun 3
Waxing Crescent
Jun 5
First Quarter
Jun 13
Full
Jun 19
Last Quarter
Jun 27
New

Hourly Weather History & Observations

Time (EDT) Temp. Heat Index Dew Point Humidity Pressure Visibility Wind Dir Wind Speed Gust Speed Precip Events Conditions
12:10 AM 67.5 °F - 66.2 °F 96% 30.17 in 10.0 mi North - - N/A   Scattered Clouds
12:35 AM 66.4 °F - 65.7 °F 98% 30.17 in 7.0 mi North - - N/A   Clear
12:55 AM 65.7 °F - 65.3 °F 99% 30.17 in 7.0 mi North - - N/A   Clear
1:15 AM 65.1 °F - 64.8 °F 99% 30.18 in 5.0 mi North - - N/A   Clear
1:35 AM 65.1 °F - 64.9 °F 99% 30.17 in 5.0 mi North - - N/A   Scattered Clouds
1:55 AM 64.8 °F - 64.8 °F 100% 30.17 in 5.0 mi North - - N/A   Mostly Cloudy
2:10 AM 64.0 °F - 64.0 °F 100% 30.16 in 4.0 mi North - - N/A   Scattered Clouds
2:35 AM 63.9 °F - 63.9 °F 100% 30.16 in 4.0 mi North - - N/A   Clear
2:55 AM 63.7 °F - 63.7 °F 100% 30.16 in 3.0 mi North - - N/A   Scattered Clouds
3:15 AM 63.3 °F - 63.3 °F 100% 30.16 in 4.0 mi North - - N/A   Scattered Clouds
3:35 AM 63.5 °F - 63.5 °F 100% 30.16 in 4.0 mi North - - N/A   Mostly Cloudy
3:55 AM 63.3 °F - 63.3 °F 100% 30.16 in 5.0 mi North - - N/A   Scattered Clouds
4:15 AM 63.5 °F - 63.5 °F 100% 30.16 in 4.0 mi North - - N/A   Mostly Cloudy
4:35 AM 63.7 °F - 63.7 °F 100% 30.16 in 5.0 mi North - - N/A   Overcast
4:55 AM 63.9 °F - 63.9 °F 100% 30.16 in 5.0 mi North - - N/A   Overcast
5:15 AM 63.9 °F - 63.9 °F 100% 30.16 in 5.0 mi North - - N/A   Mostly Cloudy
5:35 AM 63.9 °F - 63.9 °F 100% 30.16 in 7.0 mi North - - N/A   Scattered Clouds
5:55 AM 64.0 °F - 64.0 °F 100% 30.16 in 5.0 mi North - - N/A   Scattered Clouds
6:15 AM 64.4 °F - 64.4 °F 100% 30.16 in 5.0 mi North - - N/A   Mostly Cloudy
6:30 AM 64.0 °F - 64.0 °F 100% 30.17 in 5.0 mi North - - N/A   Mostly Cloudy
6:55 AM 64.8 °F - 64.8 °F 100% 30.17 in 7.0 mi North - - N/A   Overcast
7:15 AM 65.5 °F - 65.5 °F 100% 30.17 in 7.0 mi North - - N/A   Overcast
7:35 AM 65.7 °F - 65.7 °F 100% 30.18 in 5.0 mi North - - N/A   Overcast
7:55 AM 66.2 °F - 66.2 °F 100% 30.18 in 7.0 mi North - - N/A   Overcast
8:10 AM 66.6 °F - 66.6 °F 100% 30.18 in 7.0 mi North - - N/A   Overcast
8:30 AM 67.3 °F - 67.1 °F 99% 30.18 in 7.0 mi North - - N/A   Overcast
8:55 AM 67.8 °F - 66.7 °F 96% 30.18 in 7.0 mi North - - N/A   Overcast
9:15 AM 68.5 °F - 67.1 °F 95% 30.18 in 10.0 mi North - - N/A   Overcast
9:30 AM 68.7 °F - 66.4 °F 92% 30.19 in 3.0 mi North - - N/A Rain Heavy Rain
9:50 AM 66.6 °F - 65.8 °F 98% 30.19 in 2.5 mi North - - N/A Rain Rain
10:15 AM 66.6 °F - 66.4 °F 99% 30.19 in 4.0 mi North - - N/A   Drizzle
10:30 AM 66.6 °F - 66.6 °F 100% 30.19 in 4.0 mi North - - N/A   Drizzle
10:55 AM 66.9 °F - 66.6 °F 99% 30.19 in 5.0 mi North - - N/A   Overcast
11:15 AM 67.1 °F - 66.7 °F 99% 30.19 in 7.0 mi North - - N/A   Overcast
11:30 AM 67.1 °F - 66.6 °F 98% 30.19 in 10.0 mi North - - N/A   Overcast
12:15 PM 68.4 °F - 67.3 °F 96% 30.18 in 10.0 mi North - - N/A   Overcast
12:40 PM 69.3 °F - 67.1 °F 93% 30.18 in 10.0 mi North - - N/A   Overcast
12:55 PM 69.4 °F - 67.5 °F 93% 30.18 in 10.0 mi North - - N/A   Overcast
1:15 PM 70.2 °F - 67.6 °F 92% 30.17 in 10.0 mi North - - N/A   Overcast
2:00 PM 71.1 °F - 67.8 °F 89% 30.17 in 10.0 mi North - - N/A   Overcast
2:10 PM 71.6 °F - 68.0 °F 88% 30.17 in 10.0 mi North - - N/A   Overcast
2:35 PM 73.9 °F - 68.5 °F 83% 30.16 in 10.0 mi North - - N/A   Overcast
2:55 PM 74.3 °F - 68.2 °F 81% 30.15 in 10.0 mi North - - N/A   Overcast
3:15 PM 76.8 °F - 68.4 °F 75% 30.14 in 10.0 mi North - - N/A   Overcast
3:35 PM 76.8 °F - 67.6 °F 73% 30.14 in 10.0 mi North - - N/A   Overcast
3:55 PM 77.5 °F - 68.2 °F 73% 30.13 in 10.0 mi North - - N/A   Overcast
4:35 PM 78.8 °F - 68.2 °F 70% 30.11 in 10.0 mi North - - N/A   Mostly Cloudy
4:55 PM 77.9 °F - 68.2 °F 72% 30.11 in 10.0 mi North - - N/A   Scattered Clouds
5:15 PM 78.6 °F - 68.5 °F 71% 30.10 in 10.0 mi North - - N/A   Scattered Clouds
5:35 PM 78.3 °F - 68.4 °F 71% 30.10 in 10.0 mi North - - N/A   Scattered Clouds
5:55 PM 80.1 °F 82.7 °F 68.4 °F 67% 30.09 in 10.0 mi North - - N/A   Scattered Clouds
6:10 PM 80.2 °F 83.0 °F 68.2 °F 67% 30.08 in 10.0 mi North - - N/A   Scattered Clouds
6:35 PM 78.4 °F - 69.1 °F 73% 30.07 in 10.0 mi North - - N/A   Clear
6:55 PM 77.0 °F - 70.0 °F 79% 30.06 in 10.0 mi North - - N/A   Clear
7:15 PM 75.0 °F - 70.3 °F 85% 30.06 in 10.0 mi North - - N/A   Clear
7:35 PM 73.0 °F - 70.2 °F 91% 30.08 in 10.0 mi North - - N/A   Clear
7:55 PM 71.6 °F - 70.0 °F 95% 30.06 in 10.0 mi North - - N/A   Clear
8:15 PM 70.3 °F - 69.3 °F 96% 30.06 in 7.0 mi North - - N/A   Clear
8:30 PM 69.8 °F - 69.1 °F 98% 30.06 in 7.0 mi North - - N/A   Clear
8:55 PM 68.9 °F - 68.7 °F 99% 30.08 in 7.0 mi North - - N/A   Clear
9:15 PM 68.4 °F - 68.4 °F 100% 30.08 in 5.0 mi North - - N/A   Clear
9:35 PM 67.5 °F - 67.5 °F 100% 30.08 in 5.0 mi North - - N/A   Clear
9:50 PM 67.3 °F - 67.3 °F 100% 30.08 in 4.0 mi North - - N/A   Clear
10:15 PM 66.7 °F - 66.7 °F 100% 30.08 in 4.0 mi North - - N/A   Clear
10:35 PM 67.1 °F - 67.1 °F 100% 30.09 in 4.0 mi North - - N/A   Clear
10:55 PM 67.1 °F - 67.1 °F 100% 30.09 in 4.0 mi North - - N/A   Clear
11:15 PM 66.6 °F - 66.6 °F 100% 30.08 in 3.0 mi North - - N/A   Clear
11:30 PM 66.6 °F - 66.6 °F 100% 30.08 in 4.0 mi North - - N/A   Clear
11:55 PM 66.2 °F - 66.2 °F 100% 30.07 in 5.0 mi North - - N/A   Clear